www.pogodaiklimat.ru

Погода и климат >> Архив погоды >> Казахстан >> Актогай


АРХИВ ПОГОДЫ в Актогае

Время (UTC), дата Ветер
(напр.,м/с)
 
Видим.   Явления Облачность Т
(С)
Тd
(С)
f
(%)
Тe
(С)
Тes
(С)
Комфортность P
(гПа)
Po
(гПа)
Тmin
(С)
Tmax
(С)
R
(мм)
R24
(мм)
S
(см)
18 11.02 З 1 н/о ясно -21.1 -24.4 75 -24 -24 1032.7 930.5 -1.7
21 11.02 З 1 н/о ясно -24.0 -27.2 75 -27 -27 1034.1 930.6
00 12.02 СЗ 2 н/о ясно -26.9 -30.0 75 -34 -34 опасность
обморожения
1035.8 931.0
03 12.02 СЗ 3 50 км ясно -25.0 -28.1 75 -34 -33 опасность
обморожения
1037.5 933.3 30
06 12.02 СЗ 1 50 км ясно -19.0 -21.6 80 -22 -17 1037.3 935.4 -27.0
09 12.02 СЗ 1 50 км ясно -16.0 -18.2 83 -19 -15 1037.0 936.3
12 12.02 штиль 0 50 км ясно -15.0 -17.1 84 -15 -15 1037.7 937.3
15 12.02 штиль 0 н/о ясно -23.5 -25.8 81 -24 -24 1042.8 938.6 -14.9
18 12.02 СЗ 1 н/о ясно -25.0 -27.3 81 -29 -29 1044.9 939.9 -14.9
21 12.02 З 1 н/о ясно -28.0 -30.5 79 -32 -32 опасность
обморожения
1046.0 939.7
00 13.02 З 2 н/о ясно -28.5 -31.0 79 -36 -36 опасность
обморожения
1045.3 938.9
03 13.02 СЗ 2 50 км ясно -29.0 -31.5 79 -36 -36 опасность
обморожения
1045.8 939.2 30
06 13.02 СЗ 1 50 км ясно -19.5 -21.8 82 -22 -17 1041.7 939.2 -29.1
09 13.02 З 1 50 км ясно -12.0 -13.9 86 -14 -10 1036.9 937.7
12 13.02 штиль 0 50 км ясно -11.0 -13.8 80 -11 -11 1036.0 937.2
18 13.02 штиль 0 н/о ясно -21.0 -23.0 84 -21 -21 1041.9 938.8 -10.9
21 13.02 штиль 0 н/о ясно -19.5 -21.8 82 -20 -20 1039.4 937.2
00 14.02 З 1 н/о ясно -18.0 -20.3 82 -21 -21 1037.6 936.1
03 14.02 З 2 50 км 5/0
[As trans]
-17.0 -19.3 82 -22 -22 1036.7 935.7 30
06 14.02 З 2 50 км 5/0
[Ci fib]
-8.7 -13.9 66 -13 -9 1033.1 935.5 -21.1
09 14.02 СЗ 2 50 км 5/0
[Ci fib]
-4.0 -9.6 65 -8 -5 1030.8 935.0
12 14.02 З 1 50 км 5/0
[Ci fib]
-7.0 -12.5 65 -9 -9 1030.6 933.7
15 14.02 СЗ 2 н/о ясно -8.5 -13.6 67 -13 -13 1031.5 934.0 -3.8
18 14.02 СЗ 1 н/о ясно -10.7 -15.5 68 -13 -13 1032.2 933.9 -3.8
21 14.02 СЗ 1 н/о ясно -13.0 -17.3 70 -15 -15 1032.8 933.6
00 15.02 СЗ 2 н/о ясно -17.4 -20.8 75 -23 -23 1034.5 933.5
03 15.02 СЗ 1 50 км 5/0
[Ci fib]
-18.5 -21.5 77 -21 -21 1033.2 931.9 30
06 15.02 штиль 0 50 км 5/0
[Ci fib]
-19.0 -22.3 75 -19 -13 1032.4 931.0 -18.6
09 15.02 Ю 2 50 км 5/0
[Ci fib]
-12.7 -17.0 70 -17 -14 1028.7 930.0
12 15.02 Ю 4 50 км 5/0
[Ci fib]
-14.0 -18.0 72 -22 -22 1028.2 929.1
15 15.02 Ю 4 н/о ясно -16.1 -19.5 75 -24 -24 1029.0 929.0 -12.6
18 15.02 ЮВ 1 н/о ясно -17.5 -20.7 76 -20 -20 1030.6 930.0 -12.6
21 15.02 штиль 0 н/о ясно -19.5 -22.4 78 -20 -20 1032.6 931.0
00 16.02 штиль 0 н/о ясно -20.0 -22.6 80 -20 -20 1033.1 931.3
03 16.02 Ю 2 50 км 8/0
[As op]
-15.0 -18.4 75 -20 -20 1031.8 932.0 30
06 16.02 С 3 20 км 10/0
[As op]
-8.5 -11.2 81 -14 -13 1029.6 931.4 -20.1
09 16.02 ЮВ 3 20 км 10/0
[As op]
-7.2 -9.6 83 -13 -12 1027.1 930.5
12 16.02 ЮВ 3 20 км 10/0
[As op]
-7.5 -10.0 82 -13 -13 1026.7 930.0
15 16.02 ЮВ 3 н/о 10/0
[As op]
-8.0 -10.6 82 -14 -14 1026.0 929.3 -6.8
18 16.02 ЮВ 4 н/о 10/0
[As op]
-8.2 -10.4 84 -15 -15 1025.8 929.0 -6.8
21 16.02 ЮВ 4 н/о 10/0
[As op]
-7.8 -9.9 85 -15 -15 1023.6 927.2
00 17.02 ЮВ 3 н/о 10/0
[As op]
-6.5 -8.4 86 -12 -12 1019.4 923.8
03 17.02 ЮВ 1 500 м туман ?/? -9.0 -10.9 86 -11 -11 1016.5 920.3 30
06 17.02 В 1 50 км {туман} 8/0
[As op]
-7.2 -9.2 86 -10 -7 1013.8 918.5 -9.1
09 17.02 Ю 3 50 км 8/0
[As op]
-6.2 -9.6 77 -12 -11 1011.2 916.5
12 17.02 Ю 2 50 км 8/0
[Ac trans]
-8.0 -11.4 76 -12 -12 1010.9 915.5
15 17.02 ЮВ 4 н/о 8/0
[Ac trans]
-8.5 -12.1 75 -15 -15 1010.9 915.4 -6.1
18 17.02 Ю 3 н/о 8/0
[Ac trans]
-10.0 -13.5 76 -16 -16 1011.3 915.2 -6.1
21 17.02 Ю 4 н/о 8/0
[Ac trans]
-10.5 -14.1 75 -17 -17 1011.4 915.1
00 18.02 Ю 4 н/о 8/0
[Ac trans]
-11.0 -14.6 75 -18 -18 1011.5 915.0
03 18.02 ЮЗ 6 20 км 10/0
[As op]
-7.5 -10.8 77 -16 -16 1010.9 915.7 30
06 18.02 ЮЗ 7 20 км позёмок 6/0
[As op]
-6.4 -10.3 74 -15 -14 1011.9 917.0 -11.1

 

Местоположение метеостанции Актогай (Карагандинская область, Казахстан): широта 48.30 долгота 74.97 высота над уровнем моря 780 м.

В архиве по умолчанию представлена погода в Актогае за последнюю неделю. Архивные данные за месяц целиком и за предыдущие месяцы, начиная с января 2011 года, Вы можете получить, выбрав интересующий диапазон дат из раскрывающегося списка и нажав кнопку "Ввод!".


*Определитесь, кто Вы:
робот инопланетянин человек

Внимание! Время в таблицах - всемирное. Для получения местного времени необходимо прибавить поправку, которая равна 5 ч.

Смотрите также архив погоды в соседних городах и на ближайших метеорологических станциях:

Погода в Бектау-Ате (Карагандинская область, Казахстан) (95 км)
Погода в Аксу-Аюлы (Карагандинская область, Казахстан) (102 км)
Погода в Бесобе (Карагандинская область, Казахстан) (122 км)
Погода в Каркаралинске (Карагандинская область, Казахстан) (127 км)
Погода в Агадыре (Карагандинская область, Казахстан) (155 км)
Погода в Жарыке (Карагандинская область, Казахстан) (166 км)
Погода в Балхаше (Карагандинская область, Казахстан) (167 км)
Погода в Моинты (Карагандинская область, Казахстан) (170 км)
Погода в Егиндыбулаке (Карагандинская область, Казахстан) (195 км)
Погода в Кайнаре (Восточно-Казахстанская область, Казахстан) (202 км)

Пояснения к столбцам:

Ветер - указаны скорость ветра в м/с - средняя за 10 мин, порывы в срок и между сроками (в фигурных скобках) и направление, откуда дует ветер: С - северный, СВ - северо-восточный, В - восточный, ЮВ - юго-восточный, Ю - южный, ЮЗ - юго-западный, З - западный, СЗ - северо-западный.
Видимость - горизонтальная дальность видимости в метрах или километрах. При видимости от 1 до 10 км при отсутствии осадков обычно наблюдается дымка, при ухудшении видимости до 1 км и менее - туман. В сухую погоду видимость может ухудшаться дымом, пылью или мглою.
Явления - указаны атмосферные явления, наблюдавшиеся в срок или в последний час перед сроком; фигурными скобками обозначены явления, наблюдавшиеся между сроками (за 1-3 часа до срока); квадратными скобками обозначены град или гололедные отложения с указанием их диаметра в мм.
Облачность - указаны через наклонную черту общая и нижняя облачность в баллах и высота нижней границы облаков в метрах; квадратными скобками обозначены формы облаков: Ci - перистые, Cs - перисто-слоистые, Cc - перисто-кучевые, Ac - высококучевые, As - высокослоистые, Sc - слоисто-кучевые, Ns - слоисто-дождевые, Cu - кучевые, Cb - кучево-дождевые. Подробнее классификацию облаков см. в Атласе облаков (PDF).
T - Температура воздуха - температура, измеренная на высоте 2 м над землей.
Td - Температура точки росы - температура, при понижении до которой содержащийся в воздухе водяной пар достигнет насыщения.
f - Относительная влажность воздуха - влажноcть воздуха, измеренная на высоте 2 м над землей.
Te - Эффективная температура - температура, которую ощущает одетый по сезону человек в тени. Характеристика душности погоды. При расчете учитывается влияние влажности воздуха и скорости ветра на теплоощущения человека.
Tes - Эффективная температура на солнце - температура, которую ощущает человек, с поправкой на солнечный нагрев. Характеристика знойности погоды. Зависит от высоты солнца над горизонтом, облачности и скорости ветра. Ночью, в пасмурную погоду, а также при ветре 12 м/с и более поправка равна нулю.
P - Атмосферное давление - приведенное к уровню моря атмосферное давление.
Po - Атмосферное давление - измеренное на уровне метеостанции атмосферное давление.
Tmin - Минимальная температура - минимум температуры воздуха на высоте 2 м над землей.
Tmax - Максимальная температура - максимум температуры воздуха на высоте 2 м над землей.
R - Количество осадков - Количество выпавших осадков за период времени, мм. При наведении курсора мыши на число - период времени, за который выпало указанное количество осадков.
R24 - Количество осадков - Количество выпавших осадков за 24 часа, мм.
S - Снежный покров - Высота снежного покрова, см. При наведении курсора мыши на число - состояние снежного покрова и степень покрытия местности в баллах.